| time (UTC) | temp C | wind direction | speed KPH | gust KPH | rain 1hr cm | rain 24hr cm | rain mn cm | humidity % | barometer mb |
| 20260505183026 | 15 | 18 | 3.2 | 17.7 | 0.00 | 0.00 | 0.00 | 60 | 1012.9 |
| 20260505181533 | 15 | 340 | 3.2 | 17.7 | 0.00 | 0.00 | 0.00 | 60 | 1012.8 |
| 20260505180039 | 15 | 54 | 3.2 | 19.3 | 0.00 | 0.00 | 0.00 | 60 | 1012.8 |
| 20260505174518 | 15 | 5 | 11.3 | 19.3 | 0.00 | 0.00 | 0.00 | 60 | 1012.8 |
| 20260505173025 | 15 | 346 | 1.6 | 16.1 | 0.00 | 0.00 | 0.00 | 60 | 1012.9 |
| 20260505171527 | 15 | 24 | 6.4 | 16.1 | 0.00 | 0.00 | 0.00 | 59 | 1012.9 |
| 20260505170030 | 16 | 346 | 9.7 | 19.3 | 0.00 | 0.00 | 0.00 | 60 | 1012.9 |
| 20260505164526 | 16 | 327 | 12.9 | 20.9 | 0.00 | 0.00 | 0.00 | 58 | 1012.8 |
| 20260505163022 | 15 | 343 | 8.0 | 20.9 | 0.00 | 0.00 | 0.00 | 59 | 1012.7 |
| 20260505161527 | 16 | 11 | 11.3 | 19.3 | 0.00 | 0.00 | 0.00 | 57 | 1012.8 |
| 20260505153028 | 17 | 15 | 3.2 | 16.1 | 0.00 | 0.00 | 0.00 | 53 | 1012.9 |
| 20260505151524 | 16 | 338 | 6.4 | 20.9 | 0.00 | 0.00 | 0.00 | 54 | 1012.9 |
| 20260505124531 | 16 | 42 | 6.4 | 17.7 | 0.00 | 0.00 | 0.00 | 60 | 1013.3 |
| 20260505123009 | 15 | 71 | 3.2 | 16.1 | 0.00 | 0.00 | 0.00 | 62 | 1013.4 |
| 20260505121529 | 15 | 56 | 1.6 | 14.5 | 0.00 | 0.00 | 0.00 | 63 | 1013.5 |
| 20260505120020 | 15 | 335 | 4.8 | 14.5 | 0.00 | 0.00 | 0.00 | 65 | 1013.5 |
| 20260505114522 | 15 | 46 | 4.8 | 14.5 | 0.00 | 0.00 | 0.00 | 65 | 1013.7 |
| 20260505113023 | 15 | 344 | 3.2 | 14.5 | 0.00 | 0.00 | 0.00 | 66 | 1013.7 |
| 20260505111510 | 14 | 342 | 1.6 | 12.9 | 0.00 | 0.00 | 0.00 | 67 | 1013.9 |
| 20260505101523 | 13 | 19 | 4.8 | 16.1 | 0.00 | 0.00 | 0.00 | 70 | 1014.0 |
| 20260505100021 | 13 | 52 | 3.2 | 14.5 | 0.00 | 0.00 | 0.00 | 71 | 1014.1 |
| 20260505094519 | 12 | 75 | 4.8 | 20.9 | 0.00 | 0.00 | 0.00 | 71 | 1014.2 |
| 20260505093028 | 12 | 345 | 8.0 | 16.1 | 0.00 | 0.00 | 0.00 | 72 | 1014.4 |
| 20260505091527 | 12 | 56 | 8.0 | 19.3 | 0.00 | 0.00 | 0.00 | 73 | 1014.3 |
| 20260505090025 | 11 | 46 | 6.4 | 19.3 | 0.00 | 0.00 | 0.00 | 74 | 1014.3 |
| 20260505084518 | 11 | 66 | 6.4 | 19.3 | 0.00 | 0.00 | 0.00 | 76 | 1014.5 |
| 20260505083032 | 11 | 32 | 3.2 | 22.5 | 0.00 | 0.00 | 0.00 | 78 | 1014.5 |
| 20260505081524 | 11 | 38 | 4.8 | 14.5 | 0.00 | 0.00 | 0.00 | 78 | 1014.7 |
| 20260505080009 | 11 | 32 | 3.2 | 19.3 | 0.00 | 0.03 | 0.00 | 79 | 1014.9 |
| 20260505074512 | 11 | 21 | 6.4 | 19.3 | 0.00 | 0.03 | 0.00 | 82 | 1014.8 |
| 20260505073019 | 10 | 40 | 1.6 | 17.7 | 0.00 | 0.05 | 0.00 | 86 | 1014.7 |
| 20260505071502 | 10 | 13 | 3.2 | 24.1 | 0.00 | 0.08 | 0.00 | 88 | 1014.7 |
| 20260505070008 | 10 | 26 | 4.8 | 12.9 | 0.00 | 0.08 | 0.00 | 90 | 1014.5 |
| 20260505064510 | 9 | 22 | 1.6 | 19.3 | 0.00 | 0.08 | 0.00 | 91 | 1014.7 |
| 20260505063021 | 8 | 28 | 3.2 | 9.7 | 0.00 | 0.08 | 0.00 | 92 | 1014.5 |
| 20260505061524 | 8 | 69 | 3.2 | 8.0 | 0.00 | 0.08 | 0.00 | 92 | 1014.6 |
| 20260505060006 | 8 | 71 | 1.6 | 12.9 | 0.00 | 0.08 | 0.00 | 92 | 1014.6 |
| 20260505054510 | 8 | 38 | 1.6 | 9.7 | 0.00 | 0.08 | 0.00 | 92 | 1014.6 |
| 20260505053012 | 8 | 86 | 0.0 | 3.2 | 0.00 | 0.08 | 0.00 | 91 | 1014.6 |
| 20260505051533 | 8 | 86 | 0.0 | 0.0 | 0.00 | 0.08 | 0.00 | 91 | 1014.6 |
| 20260505041526 | 7 | 86 | 0.0 | 0.0 | 0.00 | 0.08 | 0.00 | 90 | 1014.5 |
| 20260505040022 | 7 | 86 | 0.0 | 0.0 | 0.00 | 0.08 | 0.00 | 90 | 1014.3 |
| 20260505034524 | 7 | 86 | 0.0 | 0.0 | 0.00 | 0.08 | 0.00 | 90 | 1014.3 |
| 20260505033007 | 7 | 86 | 0.0 | 0.0 | 0.00 | 0.08 | 0.00 | 89 | 1014.3 |
| 20260505031524 | 7 | 86 | 0.0 | 0.0 | 0.00 | 0.08 | 0.00 | 89 | 1014.4 |
| 20260505030018 | 8 | 86 | 0.0 | 0.0 | 0.00 | 0.08 | 0.00 | 89 | 1014.5 |
| 20260505024525 | 8 | 86 | 0.0 | 0.0 | 0.00 | 0.08 | 0.00 | 89 | 1014.5 |
| 20260505023026 | 8 | 86 | 0.0 | 0.0 | 0.00 | 0.08 | 0.00 | 89 | 1014.7 |
| 20260505021508 | 8 | 86 | 0.0 | 0.0 | 0.00 | 0.08 | 0.00 | 89 | 1014.7 |
| 20260505020016 | 8 | 86 | 0.0 | 1.6 | 0.00 | 0.08 | 0.00 | 88 | 1014.9 |
| 20260505014522 | 8 | 86 | 0.0 | 0.0 | 0.00 | 0.08 | 0.00 | 88 | 1014.9 |
| 20260505013025 | 9 | 86 | 0.0 | 0.0 | 0.00 | 0.08 | 0.00 | 88 | 1014.7 |
| 20260505011528 | 10 | 86 | 0.0 | 0.0 | 0.00 | 0.08 | 0.00 | 88 | 1014.8 |
| 20260505010015 | 10 | 86 | 0.0 | 0.0 | 0.00 | 0.08 | 0.00 | 88 | 1015.0 |
| 20260505004518 | 10 | 86 | 0.0 | 0.0 | 0.00 | 0.08 | 0.00 | 88 | 1014.9 |
| 20260505003027 | 11 | 86 | 0.0 | 0.0 | 0.00 | 0.08 | 0.00 | 89 | 1015.1 |
| 20260505001524 | 11 | 86 | 0.0 | 0.0 | 0.00 | 0.08 | 0.00 | 89 | 1015.0 |
| 20260505000031 | 11 | 86 | 0.0 | 1.6 | 0.00 | 0.08 | 0.00 | 88 | 1015.0 |
| 20260504234514 | 11 | 86 | 0.0 | 3.2 | 0.00 | 0.08 | 0.00 | 88 | 1015.1 |
| 20260504233017 | 11 | 86 | 0.0 | 0.0 | 0.00 | 0.08 | 0.00 | 88 | 1015.0 |
| 20260504231522 | 11 | 86 | 0.0 | 0.0 | 0.00 | 0.08 | 0.00 | 88 | 1015.2 |
| 20260504230010 | 11 | 86 | 0.0 | 0.0 | 0.00 | 0.08 | 0.00 | 87 | 1015.2 |
| 20260504224519 | 11 | 86 | 0.0 | 0.0 | 0.00 | 0.08 | 0.08 | 87 | 1015.3 |
| 20260504223020 | 11 | 86 | 0.0 | 0.0 | 0.00 | 0.08 | 0.08 | 87 | 1015.3 |
| 20260504221524 | 12 | 86 | 0.0 | 0.0 | 0.00 | 0.08 | 0.08 | 87 | 1015.3 |
| 20260504220024 | 12 | 86 | 0.0 | 0.0 | 0.00 | 0.08 | 0.08 | 86 | 1015.4 |
| 20260504214509 | 12 | 86 | 0.0 | 0.0 | 0.00 | 0.08 | 0.08 | 86 | 1015.3 |
| 20260504213012 | 12 | 86 | 0.0 | 1.6 | 0.00 | 0.08 | 0.08 | 86 | 1015.3 |
| 20260504211518 | 12 | 86 | 0.0 | 0.0 | 0.00 | 0.08 | 0.08 | 86 | 1015.3 |
| 20260504210021 | 12 | 86 | 0.0 | 0.0 | 0.00 | 0.08 | 0.08 | 85 | 1015.4 |
| 20260504204525 | 12 | 86 | 0.0 | 0.0 | 0.00 | 0.08 | 0.08 | 85 | 1015.4 |
| 20260504203010 | 12 | 86 | 0.0 | 0.0 | 0.00 | 0.08 | 0.08 | 85 | 1015.4 |
| 20260504201513 | 13 | 86 | 0.0 | 0.0 | 0.00 | 0.08 | 0.08 | 84 | 1015.3 |
| 20260504200021 | 13 | 86 | 0.0 | 0.0 | 0.00 | 0.08 | 0.08 | 84 | 1015.0 |
| 20260504194525 | 13 | 86 | 0.0 | 3.2 | 0.00 | 0.08 | 0.08 | 83 | 1014.9 |
| 20260504193027 | 13 | 86 | 0.0 | 0.0 | 0.00 | 0.08 | 0.08 | 83 | 1014.7 |
| 20260504191512 | 13 | 86 | 0.0 | 4.8 | 0.00 | 0.08 | 0.08 | 83 | 1014.6 |
| 20260504190018 | 13 | 86 | 0.0 | 4.8 | 0.00 | 0.08 | 0.08 | 82 | 1014.4 |
| 20260504184531 | 14 | 85 | 1.6 | 6.4 | 0.00 | 0.08 | 0.08 | 82 | 1014.4 |